• In Moldova, Republic
  • List of Countries
  • For 7 days
  • Water Temperature
  • Satellite Maps
  • Weather Map
  • Weather Widgets
  • user-avatar
    Login

    Hourly Weather Sidi Bu-l-Abbas

    Today, 26 March, Sunday

    Time Temperature Precipitation Wind Pressure Humidity
    00:00 +8°C° 0 mm 1 mps 719 mmHg 71%
    01:00 +8°C° 0 mm 1 mps 719 mmHg 71%
    02:00 +7°C° 0 mm 1 mps 719 mmHg 72%
    03:00 +7°C° 0 mm 1 mps 718 mmHg 73%
    04:00 +7°C° 0 mm 1 mps 718 mmHg 73%
    05:00 +5°C° 0 mm 0 mps 718 mmHg 73%
    06:00 +6°C° 0 mm 1 mps 718 mmHg 74%
    07:00 +10°C° 0 mm 1 mps 719 mmHg 63%
    08:00 +14°C° 0 mm 1 mps 719 mmHg 51%
    09:00 +18°C° 0 mm 1 mps 720 mmHg 40%
    10:00 +19°C° 0 mm 2 mps 720 mmHg 36%
    11:00 +21°C° 0 mm 2 mps 720 mmHg 33%
    12:00 +24°C° 0 mm 3 mps 720 mmHg 29%
    13:00 +24°C° 0 mm 3 mps 719 mmHg 31%
    14:00 +23°C° 0 mm 4 mps 718 mmHg 32%
    15:00 +23°C° 0 mm 4 mps 718 mmHg 34%
    16:00 +21°C° 0 mm 3 mps 717 mmHg 44%
    17:00 +18°C° 0 mm 3 mps 717 mmHg 54%
    18:00 +16°C° 0 mm 2 mps 716 mmHg 64%
    19:00 +14°C° 0 mm 2 mps 717 mmHg 69%
    20:00 +12°C° 0 mm 1 mps 717 mmHg 74%
    21:00 +10°C° 0 mm 1 mps 717 mmHg 79%
    22:00 +11°C° 0 mm 1 mps 718 mmHg 80%
    23:00 +10°C° 0 mm 2 mps 718 mmHg 81%

    Tomorrow, 27 March, Monday

    Time Temperature Precipitation Wind Pressure Humidity
    00:00 +10°C° 0 mm 2 mps 718 mmHg 82%
    01:00 +10°C° 0 mm 2 mps 719 mmHg 84%
    02:00 +10°C° 0 mm 2 mps 719 mmHg 86%
    03:00 +9°C° 0 mm 2 mps 720 mmHg 88%
    04:00 +9°C° 0 mm 2 mps 720 mmHg 89%
    05:00 +8°C° 0 mm 2 mps 721 mmHg 91%
    06:00 +8°C° 0 mm 2 mps 721 mmHg 93%
    07:00 +10°C° 0 mm 2 mps 722 mmHg 82%
    08:00 +14°C° 0 mm 2 mps 723 mmHg 70%
    09:00 +16°C° 0 mm 2 mps 724 mmHg 59%
    10:00 +17°C° 0 mm 2 mps 724 mmHg 55%
    11:00 +18°C° 0 mm 3 mps 724 mmHg 51%
    12:00 +19°C° 0 mm 3 mps 724 mmHg 47%
    13:00 +19°C° 0 mm 3 mps 724 mmHg 48%
    14:00 +19°C° 0 mm 3 mps 724 mmHg 49%
    15:00 +19°C° 0 mm 4 mps 723 mmHg 49%
    16:00 +18°C° 0 mm 3 mps 723 mmHg 56%
    17:00 +16°C° 0 mm 3 mps 723 mmHg 63%
    18:00 +15°C° 0 mm 2 mps 723 mmHg 70%
    19:00 +13°C° 0 mm 2 mps 724 mmHg 77%
    20:00 +11°C° 0 mm 1 mps 724 mmHg 83%
    21:00 +10°C° 0 mm 1 mps 724 mmHg 89%
    22:00 +9°C° 0 mm 1 mps 724 mmHg 89%
    23:00 +9°C° 0 mm 1 mps 724 mmHg 89%

    Day after tomorrow, 28 March, Tuesday

    Time Temperature Precipitation Wind Pressure Humidity
    00:00 +8°C° 0 mm 1 mps 724 mmHg 89%
    01:00 +7°C° 0 mm 0 mps 724 mmHg 89%
    02:00 +7°C° 0 mm 0 mps 724 mmHg 89%
    03:00 +6°C° 0 mm 0 mps 724 mmHg 89%
    04:00 +6°C° 0 mm 0 mps 724 mmHg 89%
    05:00 +6°C° 0 mm 0 mps 724 mmHg 89%
    06:00 +6°C° 0 mm 0 mps 724 mmHg 88%
    07:00 +9°C° 0 mm 0 mps 725 mmHg 73%
    08:00 +13°C° 0 mm 1 mps 726 mmHg 58%
    09:00 +16°C° 0 mm 1 mps 726 mmHg 43%
    10:00 +18°C° 0 mm 2 mps 726 mmHg 39%
    11:00 +19°C° 0 mm 2 mps 726 mmHg 35%
    12:00 +20°C° 0 mm 3 mps 726 mmHg 31%
    13:00 +21°C° 0 mm 3 mps 726 mmHg 33%
    14:00 +21°C° 0 mm 4 mps 726 mmHg 35%
    15:00 +21°C° 0 mm 4 mps 725 mmHg 37%
    16:00 +19°C° 0 mm 4 mps 726 mmHg 46%
    17:00 +17°C° 0 mm 3 mps 726 mmHg 54%
    18:00 +16°C° 0 mm 3 mps 726 mmHg 62%
    19:00 +14°C° 0 mm 2 mps 726 mmHg 70%
    20:00 +12°C° 0 mm 2 mps 726 mmHg 79%
    21:00 +10°C° 0 mm 1 mps 727 mmHg 87%
    22:00 +9°C° 0 mm 1 mps 727 mmHg 87%
    23:00 +9°C° 0 mm 1 mps 726 mmHg 87%

    29 March, Wednesday

    Time Temperature Precipitation Wind Pressure Humidity
    00:00 +9°C° 0 mm 1 mps 726 mmHg 86%
    01:00 +9°C° 0 mm 1 mps 726 mmHg 86%
    02:00 +8°C° 0 mm 1 mps 726 mmHg 86%
    03:00 +8°C° 0 mm 1 mps 725 mmHg 85%
    04:00 +7°C° 0 mm 1 mps 725 mmHg 85%
    05:00 +7°C° 0 mm 1 mps 725 mmHg 85%
    06:00 +7°C° 0 mm 1 mps 725 mmHg 85%
    07:00 +11°C° 0 mm 1 mps 726 mmHg 70%
    08:00 +14°C° 0 mm 1 mps 727 mmHg 55%
    09:00 +19°C° 0 mm 1 mps 728 mmHg 40%
    10:00 +19°C° 0 mm 2 mps 727 mmHg 35%
    11:00 +21°C° 0 mm 2 mps 727 mmHg 29%
    12:00 +22°C° 0 mm 3 mps 727 mmHg 24%
    13:00 +22°C° 0 mm 3 mps 726 mmHg 24%
    14:00 +22°C° 0 mm 3 mps 726 mmHg 25%
    15:00 +23°C° 0 mm 4 mps 725 mmHg 25%
    16:00 +21°C° 0 mm 4 mps 725 mmHg 33%
    17:00 +19°C° 0 mm 3 mps 725 mmHg 41%
    18:00 +17°C° 0 mm 3 mps 725 mmHg 49%
    19:00 +14°C° 0 mm 3 mps 725 mmHg 57%
    20:00 +13°C° 0 mm 2 mps 725 mmHg 64%
    21:00 +10°C° 0 mm 2 mps 725 mmHg 72%
    22:00 +10°C° 0 mm 2 mps 725 mmHg 71%
    23:00 +9°C° 0 mm 2 mps 725 mmHg 69%

    30 March, Thursday

    Time Temperature Precipitation Wind Pressure Humidity
    00:00 +9°C° 0 mm 2 mps 725 mmHg 68%
    01:00 +9°C° 0 mm 2 mps 725 mmHg 65%
    02:00 +9°C° 0 mm 2 mps 724 mmHg 62%
    03:00 +9°C° 0 mm 2 mps 724 mmHg 60%
    04:00 +9°C° 0 mm 2 mps 724 mmHg 58%
    05:00 +9°C° 0 mm 2 mps 724 mmHg 55%
    06:00 +9°C° 0 mm 2 mps 724 mmHg 53%
    07:00 +14°C° 0 mm 2 mps 725 mmHg 44%
    08:00 +17°C° 0 mm 2 mps 725 mmHg 35%
    09:00 +22°C° 0 mm 1 mps 726 mmHg 27%
    10:00 +24°C° 0 mm 2 mps 726 mmHg 24%
    11:00 +26°C° 0 mm 2 mps 726 mmHg 22%
    12:00 +27°C° 0 mm 2 mps 725 mmHg 20%
    13:00 +27°C° 0 mm 3 mps 725 mmHg 21%
    14:00 +27°C° 0 mm 3 mps 724 mmHg 23%
    15:00 +27°C° 0 mm 3 mps 724 mmHg 24%
    16:00 +25°C° 0 mm 3 mps 724 mmHg 32%
    17:00 +21°C° 0 mm 2 mps 724 mmHg 41%
    18:00 +19°C° 0 mm 2 mps 723 mmHg 49%
    19:00 +18°C° 0 mm 1 mps 724 mmHg 56%
    20:00 +15°C° 0 mm 1 mps 724 mmHg 62%
    21:00 +14°C° 0 mm 1 mps 724 mmHg 69%
    22:00 +13°C° 0 mm 1 mps 724 mmHg 67%
    23:00 +13°C° 0 mm 1 mps 724 mmHg 65%

    31 March, Friday

    Time Temperature Precipitation Wind Pressure Humidity
    00:00 +13°C° 0 mm 1 mps 723 mmHg 63%
    01:00 +13°C° 0 mm 1 mps 723 mmHg 63%
    02:00 +13°C° 0 mm 1 mps 723 mmHg 62%
    03:00 +13°C° 0 mm 1 mps 723 mmHg 62%
    04:00 +12°C° 0 mm 1 mps 723 mmHg 61%
    05:00 +12°C° 0 mm 1 mps 723 mmHg 61%
    06:00 +12°C° 0 mm 2 mps 723 mmHg 60%
    07:00 +15°C° 0 mm 2 mps 724 mmHg 52%
    08:00 +19°C° 0 mm 2 mps 725 mmHg 44%
    09:00 +23°C° 0 mm 2 mps 725 mmHg 35%
    10:00 +24°C° 0 mm 3 mps 725 mmHg 33%
    11:00 +25°C° 0 mm 4 mps 725 mmHg 31%
    12:00 +27°C° 0 mm 5 mps 725 mmHg 29%
    13:00 +26°C° 0 mm 5 mps 725 mmHg 30%
    14:00 +26°C° 0 mm 5 mps 724 mmHg 31%
    15:00 +25°C° 0 mm 5 mps 724 mmHg 32%
    16:00 +22°C° 0 mm 5 mps 723 mmHg 38%
    17:00 +20°C° 0 mm 4 mps 723 mmHg 45%
    18:00 +18°C° 0 mm 3 mps 723 mmHg 52%
    19:00 +17°C° 0 mm 3 mps 723 mmHg 54%
    20:00 +16°C° 0 mm 3 mps 724 mmHg 56%
    21:00 +14°C° 0 mm 3 mps 724 mmHg 59%
    22:00 +14°C° 0 mm 3 mps 724 mmHg 59%
    23:00 +13°C° 0 mm 3 mps 724 mmHg 59%
    Show more